SCP
0 1 1 0 0 0 0 0 0 0 0 0 0 0 0 0 0 0 0 0 0 0 0 0 0 0 0 0 0 0 0 0 0 0 0 0 0 0 0 0 0 0 0
0 1 1 0 0 0 0 0 0 0 0 0 0 0 0 0 0 0 0 0 0 0 0 0 0 0 0 0 0 0 0 0 0 0 0 0 0 0 0 0 0 0 0
0 1 1 0 0 0 0 0 0 0 0 0 0 0 0 0 0 0 0 0 0 0 0 0 0 0 0 0 0 0 0 0 0 0 0 0 0 0 0 0 0 0 0
0 0 1 1 0 0 0 0 0 0 0 0 0 0 0 0 0 0 0 0 0 0 0 0 0 0 0 0 0 0 0 0 0 0 0 0 0 0 0 0 0 0 0
0 0 1 1 0 0 0 0 0 0 0 0 0 0 0 0 0 0 0 0 0 0 0 0 0 0 0 0 0 0 0 0 0 0 0 0 0 0 0 0 0 0 0
0 0 1 1 1 0 0 0 0 0 0 0 0 0 0 0 0 0 0 0 0 0 0 0 0 0 0 0 0 0 0 0 0 0 0 0 0 0 0 0 0 0 0
0 0 1 1 1 0 0 0 0 0 0 0 0 0 0 0 0 0 0 0 0 0 0 0 0 0 0 0 0 0 0 0 0 0 0 0 0 0 0 0 0 0 0
0 0 1 1 1 0 0 0 0 0 0 0 0 0 0 0 0 0 0 0 0 0 0 0 0 0 0 0 0 0 0 0 0 0 0 0 0 0 0 0 0 0 0
0 0 0 0 0 0 0 0 0 0 0 0 0 0 0 0 0 0 0 0 0 0 0 0 0 0 0 0 0 0 0 0 0 0 0 0 0 0 0 0 0 0 0
0 0 0 0 0 0 0 0 0 0 0 0 0 0 0 0 0 0 0 0 0 0 0 0 0 0 0 0 0 0 0 0 0 0 0 0 0 0 0 0 0 0 0
0 0 0 0 0 0 0 0 0 0 0 0 0 0 0 0 0 0 0 0 0 0 0 0 0 0 0 0 0 0 0 0 0 0 0 0 0 0 0 0 0 0 0
0 0 0 0 0 0 0 0 0 0 0 0 0 0 0 0 0 0 0 0 0 0 0 0 0 0 0 0 0 0 0 0 0 0 0 0 0 0 0 0 0 0 0
0 0 0 0 0 0 0 0 0 0 0 0 0 0 0 0 0 0 0 0 0 0 0 0 0 0 0 0 0 0 0 0 0 0 0 0 0 0 0 0 0 0 0
0 0 0 0 0 0 0 0 0 0 0 0 0 0 0 0 0 0 0 0 0 0 0 0 0 0 0 0 0 0 0 0 0 0 0 0 0 0 0 0 0 0 0
0 0 0 0 0 0 0 0 0 0 0 0 0 0 0 0 0 0 0 0 0 0 0 0 0 0 0 0 0 0 0 0 0 0 0 0 0 0 0 0 0 0 0
1 1 0 0 0 1 0 0 0 0 0 0 0 0 0 0 0 0 0 0 0 0 0 0 0 0 0 0 0 0 0 0 0 0 0 0 0 0 0 0 0 0 0
1 1 1 0 0 1 1 0 0 0 0 0 0 0 0 0 0 0 0 0 0 0 0 0 0 0 0 0 0 0 0 0 0 0 0 0 0 0 0 0 0 0 0
1 1 1 1 1 1 1 1 0 0 0 0 0 0 0 0 0 0 0 0 0 0 0 0 0 0 0 0 0 0 0 0 0 0 0 0 0 0 0 0 0 0 0
1 1 1 1 1 1 1 1 1 0 0 0 0 0 0 0 1 1 0 0 0 0 1 1 1 1 0 0 0 0 0 0 0 0 0 0 0 0 0 0 0 0 0
1 1 1 1 1 1 1 1 1 1 0 0 0 0 0 1 1 1 1 1 1 1 1 1 1 1 1 0 0 0 0 0 0 0 0 0 0 0 0 0 0 0 0
1 1 1 1 1 1 1 1 1 1 0 0 0 0 0 1 1 1 1 1 1 1 1 1 1 1 1 1 0 0 0 0 0 0 0 0 0 0 0 0 0 0 0
1 1 1 1 1 1 1 1 1 1 0 0 0 0 0 1 1 1 1 1 1 1 1 1 1 1 1 1 0 0 0 0 0 0 0 0 0 0 0 0 0 0 0
1 1 1 1 1 1 1 1 1 1 0 0 0 0 0 1 1 1 1 1 1 1 1 1 1 1 1 1 1 0 0 0 0 0 0 0 0 0 0 0 0 0 0
1 1 1 1 1 1 1 1 1 1 1 1 0 0 0 0 0 0 1 1 1 1 1 1 0 0 0 0 0 0 0 0 0 0 0 0 0 0 0 0 0 0 0
1 1 1 1 1 1 1 1 1 1 1 1 1 1 1 1 0 0 1 1 1 1 1 1 1 1 0 0 0 0 0 0 0 0 0 0 0 0 0 0 0 0 0
1 1 1 1 1 1 1 1 1 1 1 1 1 1 1 1 1 0 0 1 1 1 1 1 1 1 0 0 0 0 0 0 0 0 0 0 0 0 0 0 0 0 0
Wind_Speed
9 13 15 11 10 9 9 9 9 9 9 9 9 9 9 9 9 9 10 10 10 10 10 11 11 11 12 13 12 11 12 12 12 12 12 12 12 12 11 11 10 11 14
12 14 15 11 10 10 9 9 9 9 9 9 9 9 9 9 9 9 9 9 9 9 10 11 11 11 12 12 12 11 11 11 11 12 12 12 12 11 10 9 6 9 13
13 14 15 11 10 10 9 9 9 10 9 9 9 8 9 9 9 9 9 9 9 9 9 10 10 11 11 11 11 11 11 10 10 10 9 8 11 11 10 9 10 12 11
13 13 13 13 11 10 10 9 10 10 10 9 9 9 9 9 9 8 9 9 9 8 8 8 9 10 10 10 9 9 10 9 9 8 6 6 8 12 10 10 10 10 10
12 12 14 13 11 11 10 10 10 10 10 10 9 9 8 8 9 8 8 8 8 8 7 7 8 8 8 8 8 8 9 9 8 7 5 6 6 11 10 9 9 9 9
12 12 15 12 12 11 10 10 10 10 9 9 9 9 8 8 8 8 7 8 7 7 7 7 7 7 7 7 8 8 8 8 8 5 5 5 6 11 9 8 8 9 8
12 11 15 12 11 11 10 10 10 10 9 9 8 8 8 8 8 7 7 7 7 6 7 6 6 7 7 7 7 7 6 6 5 5 5 5 7 9 8 7 7 7 8
11 11 14 13 11 11 10 10 10 10 9 9 8 8 8 7 7 7 7 6 6 6 6 6 6 6 6 6 7 6 6 6 5 5 5 5 9 8 7 6 6 6 7
11 11 11 13 12 11 10 9 9 9 9 8 8 8 8 7 7 6 6 6 6 6 6 5 5 5 5 5 6 6 4 4 4 4 5 5 9 9 8 7 6 6 7
10 10 10 10 11 11 11 11 9 9 9 8 8 7 7 8 7 6 7 6 6 6 6 5 5 5 4 4 5 5 5 6 5 4 4 6 9 9 9 8 7 6 6
9 9 9 9 9 8 9 11 10 10 9 8 9 8 7 6 6 6 5 6 6 5 5 5 4 4 4 6 6 5 7 4 3 2 3 7 8 8 8 8 8 7 7
11 10 9 8 8 7 6 7 6 7 8 6 5 6 5 3 3 4 8 6 5 5 5 4 4 5 6 5 7 8 4 4 2 3 4 7 7 7 7 7 7 7 7
11 10 9 9 8 7 5 5 4 4 5 5 5 5 3 3 3 3 4 6 5 6 4 6 6 3 2 1 2 3 2 2 2 2 5 7 6 7 8 7 8 7 8
11 10 9 9 8 7 5 5 5 4 4 4 5 5 4 3 3 2 2 3 3 3 2 2 1 1 1 1 2 2 2 2 2 1 4 7 6 6 7 8 8 8 8
10 10 9 9 8 7 6 5 5 4 4 4 4 4 4 3 3 3 2 2 2 2 3 2 2 2 2 2 2 2 2 2 2 2 3 6 5 5 6 7 8 8 8
9 9 9 9 9 8 7 5 5 5 4 4 4 5 5 3 3 3 3 3 2 3 2 2 2 2 2 1 2 2 3 2 2 2 2 5 7 6 6 6 8 8 8
9 8 9 9 9 8 8 7 5 5 5 4 4 5 5 5 4 3 3 4 3 3 3 3 3 2 2 3 3 3 3 3 2 3 3 2 4 7 7 7 7 8 9
8 8 8 8 9 9 7 6 5 5 4 4 4 5 6 5 5 4 4 4 3 4 3 3 3 3 2 3 2 2 2 2 3 3 3 3 2 3 7 8 7 8 9
8 8 8 8 9 8 8 6 5 4 4 4 4 4 5 6 6 5 4 3 4 4 3 3 3 3 3 3 2 2 2 3 3 4 3 3 3 3 3 7 9 9 10
7 8 8 8 8 7 7 6 5 5 5 4 4 4 6 5 6 5 4 5 5 4 3 3 3 3 3 3 3 2 3 3 3 3 4 3 3 4 4 4 5 7 10
7 7 8 8 7 6 5 6 6 5 5 4 4 5 6 6 6 5 4 4 5 4 4 4 4 5 4 3 3 3 3 3 3 3 3 3 3 4 4 4 4 3 5
6 7 7 7 7 7 6 5 5 4 4 4 4 4 6 6 6 6 5 5 5 3 4 4 4 4 3 3 3 3 3 4 4 3 3 3 3 3 4 5 4 4 4
6 6 6 7 7 7 6 5 4 4 4 5 5 5 6 6 6 5 5 5 4 5 4 4 4 5 4 3 3 3 3 2 1 3 3 3 3 2 3 3 5 5 5
5 6 6 6 6 7 7 7 7 6 5 5 4 5 6 6 6 6 6 6 5 4 4 5 5 4 4 4 3 3 3 4 4 2 3 3 3 3 3 4 4 4 5
4 5 6 6 6 7 7 6 7 6 4 4 5 5 6 6 7 6 6 5 5 5 5 4 4 5 4 4 3 3 3 3 5 4 3 3 3 3 3 3 3 3 3
4 4 5 6 6 6 6 6 6 6 5 5 5 5 5 5 6 7 7 6 6 5 5 5 5 6 4 4 4 3 3 3 3 4 4 4 4 3 2 2 3 3 3
Wind_Direction
141 134 137 146 146 142 138 135 133 132 128 125 124 123 122 119 114 111 117 117 118 116 115 116 116 115 115 116 118 119 125 127 137 135 134 129 127 126 123 128 137 125 122
137 134 139 146 146 143 140 136 133 130 126 125 124 122 120 118 113 110 111 114 117 118 117 118 117 117 119 121 123 124 126 131 135 137 140 139 131 127 126 126 114 114 130
138 137 146 146 146 144 141 137 133 131 128 126 122 119 117 116 112 112 110 110 114 118 120 122 123 123 126 127 128 131 133 134 136 139 155 148 131 130 128 126 120 127 132
140 143 145 142 148 146 144 141 136 133 130 126 123 119 116 114 113 111 111 109 110 115 118 122 126 127 131 134 134 134 138 139 141 160 168 135 132 127 132 131 131 135 137
144 142 133 148 150 149 147 146 142 137 133 128 123 121 116 115 115 113 112 111 111 113 116 119 124 128 134 139 143 142 143 147 156 191 142 128 124 126 133 136 139 142 145
146 143 136 154 151 150 149 146 143 140 137 132 125 120 115 113 113 113 112 109 108 110 114 116 123 128 133 138 144 146 149 158 184 166 138 139 130 131 139 141 146 148 150
146 143 138 151 152 152 150 147 146 144 141 135 130 125 118 114 112 111 109 108 105 107 109 114 120 125 130 134 141 144 149 173 197 147 150 146 125 132 142 147 150 154 156
147 143 138 150 154 153 152 149 147 147 145 140 135 129 122 118 116 115 113 111 108 106 108 109 115 122 128 134 137 142 159 206 181 156 163 147 128 144 149 156 159 163 168
151 148 149 156 159 159 156 153 150 148 146 143 138 134 129 125 123 123 117 112 111 108 107 109 115 121 131 140 141 149 167 220 217 169 167 144 138 156 162 171 175 179 182
156 154 157 160 158 165 161 156 155 152 150 148 144 143 143 144 142 142 142 122 119 116 114 112 113 116 128 144 152 164 187 220 199 178 159 135 145 164 171 177 186 193 195
162 163 163 160 159 166 158 152 163 163 160 164 161 158 176 171 154 160 122 121 127 125 122 120 123 134 157 161 170 189 212 217 172 170 144 126 152 167 176 182 189 194 195
170 170 167 166 163 165 158 155 169 172 163 178 162 169 183 162 158 142 122 128 133 138 143 140 155 185 212 171 168 200 212 202 188 176 132 143 167 182 188 192 193 193 192
171 171 171 169 168 168 165 165 167 168 163 175 171 179 177 174 163 162 152 153 159 173 165 158 189 193 183 143 194 195 209 213 189 181 137 155 179 195 202 206 202 200 197
171 173 172 168 171 176 171 170 173 174 169 172 172 193 182 182 178 163 169 161 167 168 160 177 176 144 163 227 231 218 212 222 197 177 140 156 181 202 210 213 207 205 203
174 174 174 174 170 173 177 186 175 179 175 168 183 190 205 194 185 171 166 180 190 166 175 186 169 158 198 215 241 237 247 247 241 224 145 155 179 205 219 216 207 207 207
176 176 172 178 173 177 180 185 181 179 179 185 188 188 206 203 185 189 183 191 192 189 182 199 181 193 216 221 236 239 254 256 246 243 214 168 181 202 214 213 207 205 210
177 176 175 179 176 182 184 187 185 184 189 191 185 191 201 204 190 198 193 199 195 189 186 202 199 213 219 220 225 242 248 261 256 250 246 223 189 190 201 205 204 206 213
177 174 179 180 178 183 189 194 192 189 189 196 194 193 199 207 205 211 206 203 198 204 204 199 220 221 221 236 227 239 244 245 249 247 242 232 230 203 187 193 201 207 214
176 176 180 182 181 185 188 190 199 192 198 201 199 197 194 206 210 215 216 206 212 212 215 221 199 233 228 242 240 226 242 244 243 239 243 238 232 242 221 178 195 208 217
172 175 178 180 181 184 186 189 199 200 201 204 205 200 201 201 207 220 211 208 218 217 216 222 220 226 241 243 252 242 241 241 241 236 243 226 222 229 235 221 206 201 203
169 175 181 184 180 185 188 198 198 199 202 206 209 201 206 205 202 217 222 201 221 217 223 222 226 215 223 230 240 232 220 221 229 237 242 238 221 223 226 229 240 239 200
169 175 179 185 182 190 190 200 201 200 202 206 209 204 214 209 207 210 222 216 209 209 211 222 227 239 224 219 248 248 229 202 205 218 226 220 233 233 224 222 230 236 253
168 177 182 185 183 192 186 190 188 190 201 197 201 199 207 209 209 219 216 227 213 216 199 209 218 233 233 217 237 262 270 267 229 182 212 222 223 234 235 228 227 230 238
173 171 175 178 181 184 189 197 195 201 206 203 202 196 196 202 207 209 213 213 219 219 206 213 206 227 237 230 214 240 273 311 288 243 207 208 219 233 242 248 238 226 236
164 165 166 169 178 182 191 195 203 214 212 200 196 194 201 197 204 208 210 208 210 220 214 220 206 229 229 240 236 230 233 236 259 269 267 261 242 236 235 243 252 250 246
161 165 165 168 179 182 186 192 199 208 209 206 200 192 201 197 200 204 207 208 210 216 215 218 217 218 234 240 250 248 245 248 251 263 267 265 267 261 254 251 243 241 245